Date String (YYYY-MM-DD hh:mm:ss) UTC,Instrument flags,absolute air pressure of the measurement (hPa),sample flow rate (lpm),inlet stack bypass flow (lpm),air temperature of the measurement (°C),ambient temperature measured by the external sensor (°C),aerosol sample conditioner tube jacket temperature (°C),OPC LED temperature (°C),internal box temperature (°C),relative humidity of the measurement (%),span deviation,mass concentration of particles derived from Lorenz-Mie calculation of OPC scattering (μg/m³),mass concentration of particles derived from Lorenz-Mie calculation of OPC scattering (μg/m³),mass concentration of particles derived from Lorenz-Mie calculation of OPC scattering (μg/m³)
DateTimeUTC,F1_M11,P_M11,Q1_M11,Q2_M11,T1_M11,T2_M11,T3_M11,T4_M11,T5_M11,U1_M11,ZSPAN_M11,X2_M11,X0_M11,X1_M11
2023-07-08 05:00:00,SystemResetWarning,0833.5,5.00,000.00,029.8,025.7,000.0,038.1,031.1,29.2,0001.2,0005.45,0008.82,0005.04
2023-07-08 05:01:00,SystemResetWarning,0833.4,5.00,000.00,029.7,025.2,000.0,038.0,030.9,29.4,0000.8,0005.43,0008.74,0005.03
2023-07-08 05:02:00,SystemResetWarning,0833.4,5.00,000.00,029.5,025.5,000.0,038.1,030.6,29.7,0001.2,0005.42,0008.66,0005.03
2023-07-08 05:03:00,SystemResetWarning,0833.4,5.01,000.00,029.5,025.9,000.0,038.1,030.7,29.4,0001.2,0005.39,0008.59,0005.02
2023-07-08 05:04:00,SystemResetWarning,0833.4,5.00,000.00,029.4,026.3,000.0,038.1,030.7,29.6,0001.2,0005.39,0008.48,0005.02
2023-07-08 05:05:00,SystemResetWarning,0833.4,5.00,000.00,029.4,026.6,000.0,038.1,030.8,30.0,0000.9,0005.41,0008.54,0005.02
2023-07-08 05:06:00,SystemResetWarning,0833.4,5.00,000.00,029.4,027.0,000.0,038.1,030.8,29.6,0000.9,0005.42,0008.52,0005.03
2023-07-08 05:07:00,SystemResetWarning,0833.4,5.00,000.00,029.4,027.2,000.0,038.1,030.8,29.5,0000.7,0005.43,0008.37,0005.04
2023-07-08 05:08:00,SystemResetWarning,0833.4,5.01,000.00,029.4,027.4,000.0,038.0,030.9,29.5,0000.8,0005.42,0008.17,0005.04
2023-07-08 05:09:00,SystemResetWarning,0833.6,5.00,000.00,029.4,027.6,000.0,038.0,030.9,29.2,0000.8,0005.42,0008.20,0005.04
2023-07-08 05:10:00,SystemResetWarning,0833.6,4.99,000.00,029.5,027.8,000.0,038.0,030.9,29.3,0000.9,0005.43,0008.26,0005.05
2023-07-08 05:11:00,SystemResetWarning,0833.7,5.01,000.00,029.5,027.9,000.0,038.0,031.0,29.5,0000.9,0005.44,0008.45,0005.06
2023-07-08 05:12:00,SystemResetWarning,0833.7,5.01,000.00,029.5,028.0,000.0,038.0,031.0,29.3,0000.8,0005.44,0008.49,0005.07
2023-07-08 05:13:00,SystemResetWarning,0833.7,4.98,000.00,029.5,028.0,000.0,038.0,031.0,29.4,0000.6,0005.44,0008.56,0005.07
2023-07-08 05:14:00,SystemResetWarning,0833.7,5.01,000.00,029.5,028.1,000.0,038.1,031.1,29.6,0000.7,0005.46,0008.67,0005.06
2023-07-08 05:15:00,SystemResetWarning,0833.6,5.01,000.00,029.5,028.2,000.0,038.1,031.1,29.4,0000.6,0005.46,0008.66,0005.06
2023-07-08 05:16:00,SystemResetWarning,0833.7,4.98,000.00,029.6,028.2,000.0,038.1,031.1,29.4,0000.5,0005.43,0008.61,0005.06
2023-07-08 05:17:00,SystemResetWarning,0833.7,5.01,000.00,029.6,028.2,000.0,038.1,031.1,29.4,0000.4,0005.42,0008.60,0005.05
2023-07-08 05:18:00,SystemResetWarning,0833.7,5.01,000.00,029.6,028.3,000.0,038.1,031.1,29.4,0000.3,0005.41,0008.54,0005.05
2023-07-08 05:19:00,SystemResetWarning,0833.6,4.99,000.00,029.6,028.3,000.0,038.1,031.2,29.4,-000.1,0005.41,0008.56,0005.05
2023-07-08 05:20:00,SystemResetWarning,0833.6,5.02,000.00,029.6,028.3,000.0,038.1,031.2,29.3,-000.3,0005.41,0008.58,0005.05
2023-07-08 05:21:00,SystemResetWarning,0833.5,4.99,000.00,029.6,028.3,000.0,038.1,031.2,29.4,-000.5,0005.39,0008.53,0005.05
2023-07-08 05:22:00,SystemResetWarning,0833.5,4.99,000.00,029.7,028.4,000.0,038.1,031.2,29.5,-000.2,0005.42,0008.46,0005.05
2023-07-08 05:23:00,SystemResetWarning,0833.5,5.00,000.00,029.7,028.4,000.0,038.2,031.2,29.0,0000.2,0005.45,0008.54,0005.06
2023-07-08 05:24:00,SystemResetWarning,0833.4,5.01,000.00,029.7,028.4,000.0,038.2,031.3,29.0,0000.6,0005.45,0008.45,0005.06
2023-07-08 05:25:00,SystemResetWarning,0833.4,5.01,000.00,029.7,028.5,000.0,038.2,031.3,28.9,0000.3,0005.45,0008.49,0005.06
2023-07-08 05:26:00,SystemResetWarning,0833.4,5.00,000.00,029.7,028.5,000.0,038.2,031.3,28.9,0000.2,0005.44,0008.75,0005.06
2023-07-08 05:27:00,SystemResetWarning,0833.4,5.00,000.00,029.8,028.5,000.0,038.2,031.3,29.0,0000.2,0005.45,0008.78,0005.06
2023-07-08 05:28:00,SystemResetWarning,0833.5,4.99,000.00,029.8,028.5,000.0,038.2,031.3,29.0,0000.5,0005.43,0008.75,0005.05
2023-07-08 05:29:00,SystemResetWarning,0833.4,5.00,000.00,029.8,028.5,000.0,038.3,031.3,29.2,0000.5,0005.45,0009.04,0005.05
2023-07-08 05:30:00,SystemResetWarning,0833.4,5.00,000.00,029.8,028.6,000.0,038.3,031.4,29.1,0000.7,0005.47,0009.50,0005.05
2023-07-08 05:31:00,SystemResetWarning,0833.5,5.00,000.00,029.8,028.6,000.0,038.3,031.4,28.9,0000.9,0005.46,0009.47,0005.05
2023-07-08 05:32:00,SystemResetWarning,0833.5,5.00,000.00,029.9,028.6,000.0,038.3,031.4,28.9,0001.3,0005.47,0009.76,0005.05
2023-07-08 05:33:00,SystemResetWarning,0833.5,5.01,000.00,029.9,028.6,000.0,038.3,031.4,29.0,0001.2,0005.44,0009.81,0005.06
2023-07-08 05:34:00,SystemResetWarning,0833.5,4.99,000.00,029.9,028.7,000.0,038.3,031.4,29.0,0001.3,0005.41,0009.67,0005.05
2023-07-08 05:35:00,SystemResetWarning,0833.5,5.00,000.00,029.9,028.7,000.0,038.4,031.4,28.8,0001.3,0005.40,0009.65,0005.04
2023-07-08 05:36:00,SystemResetWarning,0833.5,4.98,000.00,029.9,028.0,000.0,038.3,031.4,28.9,0001.3,0005.40,0010.04,0005.03
2023-07-08 05:37:00,SystemResetWarning,0833.5,5.01,000.00,029.9,026.1,000.0,038.2,031.3,29.1,0001.5,0005.40,0010.24,0005.02
2023-07-08 05:38:00,SystemResetWarning,0833.5,5.00,000.00,029.8,025.2,000.0,038.1,031.0,29.2,0001.5,0005.40,0010.50,0005.02
2023-07-08 05:39:00,SystemResetWarning,0833.5,5.02,000.00,029.6,025.3,000.0,038.1,030.7,29.5,0001.2,0005.42,0010.73,0005.02
2023-07-08 05:40:00,SystemResetWarning,0833.5,5.01,000.00,029.5,025.7,000.0,038.1,030.7,29.9,0001.1,0005.38,0010.82,0005.02
2023-07-08 05:41:00,SystemResetWarning,0833.6,5.00,000.00,029.5,026.1,000.0,038.1,030.7,29.8,0001.0,0005.35,0010.31,0005.02
2023-07-08 05:42:00,SystemResetWarning,0833.6,4.99,000.00,029.4,026.5,000.0,038.1,030.8,30.1,0001.0,0005.39,0010.85,0005.02
2023-07-08 05:43:00,SystemResetWarning,0833.7,4.99,000.00,029.4,026.8,000.0,038.1,030.8,30.2,0000.5,0005.38,0010.86,0005.02
2023-07-08 05:44:00,SystemResetWarning,0833.7,5.01,000.00,029.4,027.1,000.0,038.1,030.9,30.0,-000.2,0005.38,0010.75,0005.02
2023-07-08 05:45:00,SystemResetWarning,0833.7,5.00,000.00,029.4,027.4,000.0,038.1,030.9,30.1,-000.6,0005.35,0010.76,0005.01
2023-07-08 05:46:00,SystemResetWarning,0833.7,5.00,000.00,029.5,027.6,000.0,038.1,031.0,30.6,-001.0,0005.38,0010.81,0005.01
2023-07-08 05:47:00,SystemResetWarning,0833.7,5.00,000.00,029.5,027.7,000.0,038.1,031.0,31.3,-001.0,0005.41,0010.43,0005.02
2023-07-08 05:48:00,SystemResetWarning,0833.7,4.99,000.00,029.5,027.9,000.0,038.1,031.0,31.5,-001.3,0005.42,0009.99,0005.03
2023-07-08 05:49:00,SystemResetWarning,0833.7,5.00,000.00,029.5,028.0,000.0,038.1,031.1,30.9,-001.3,0005.41,0009.67,0005.03
2023-07-08 05:50:00,SystemResetWarning,0833.7,5.00,000.00,029.5,028.1,000.0,038.1,031.1,30.2,-001.1,0005.40,0009.44,0005.02
2023-07-08 05:51:00,SystemResetWarning,0833.7,5.01,000.00,029.6,028.2,000.0,038.1,031.1,30.1,-001.1,0005.44,0009.19,0005.02
2023-07-08 05:52:00,SystemResetWarning,0833.7,5.00,000.00,029.6,028.3,000.0,038.1,031.1,30.1,-001.5,0005.48,0009.63,0005.03
2023-07-08 05:53:00,SystemResetWarning,0833.7,5.00,000.00,029.6,028.3,000.0,038.1,031.2,30.2,-001.6,0005.47,0009.15,0005.02
2023-07-08 05:54:00,SystemResetWarning,0833.7,5.00,000.00,029.6,028.4,000.0,038.1,031.2,30.5,-001.8,0005.49,0008.96,0005.03
2023-07-08 05:55:00,SystemResetWarning,0833.7,4.99,000.00,029.7,028.4,000.0,038.1,031.2,30.7,-001.5,0005.48,0008.86,0005.02
2023-07-08 05:56:00,SystemResetWarning,0833.7,5.00,000.00,029.7,028.5,000.0,038.2,031.3,30.7,-001.5,0005.50,0008.83,0005.03
2023-07-08 05:57:00,SystemResetWarning,0833.6,5.00,000.00,029.7,028.5,000.0,038.2,031.3,30.6,-002.1,0005.49,0008.81,0005.03
2023-07-08 05:58:00,SystemResetWarning,0833.7,4.99,000.00,029.7,028.6,000.0,038.2,031.3,30.4,-002.3,0005.46,0008.70,0005.03
2023-07-08 05:59:00,SystemResetWarning,0833.7,5.01,000.00,029.8,028.6,000.0,038.2,031.3,29.8,-001.6,0005.45,0008.66,0005.04
